Valentine, NE

9:35 PM CST on December 13, 2019 (GMT -0600)
Miller Field

Weather History for KVTN - October, 2019

Change the Weather History Date:

Monday, October 14, 2019

  Actual Average Record
Temperature  
Mean Temperature 54 °F 49 °F  
Max Temperature 81 °F 64 °F 91 °F (1968)
Min Temperature 27 °F 35 °F 16 °F (2006)
Degree Days  
Heating Degree Days 12 16  
Month to date heating degree days 188  
Since 1 July heating degree days 373  
Cooling Degree Days 0 0  
Month to date cooling degree days 1  
Year to date cooling degree days 818  
Growing Degree Days 4 (Base 50)    
Moisture  
Dew Point 27 °F    
Average Humidity 50    
Maximum Humidity 75    
Minimum Humidity 10    
Precipitation  
Precipitation 0.00 in 0.04 in 0.99 in (2007)
Month to date precipitation 0.65  
Year to date precipitation 18.40  
Snow  
Snow - 0.00 in T in (1987)
Month to date snowfall 0.4  
Since 1 July snowfall 1.1  
Since 1 September snowfall 1.1  
Snow Depth -    
Sea Level Pressure  
Sea Level Pressure 29.85 in    
Wind  
Wind Speed 5 mph ()    
Max Wind Speed 20 mph    
Max Gust Speed 30 mph    
Visibility 9.9 miles    
Events      
T = Trace of Precipitation, MM = Missing Value Source: Averaged Metar Reports

Daily Weather History Graph

Daily Weather History Graph

Search for Another Location

Airport or City:

Astronomy

Oct. 14, 2019 Rise Set
Actual Time 7:54 AM CDT 7:01 PM CDT
Civil Twilight 7:25 AM CDT 7:30 PM CDT
Nautical Twilight 6:52 AM CDT 8:02 PM CDT
Astronomical Twilight 6:20 AM CDT 8:35 PM CDT
Moon 7:52 PM CDT 8:27 AM CDT
Length of Visible Light 12h 04m
Length of Day
11h 07m
Full, 99% of the Moon is Illuminated
Oct 14
Full
Oct 21
Last Quarter
Oct 27
New
Nov 4
First Quarter
Nov 12
Full

Hourly Weather History & Observations

Time (CDT) Temp. Windchill Dew Point Humidity Pressure Visibility Wind Dir Wind Speed Gust Speed Precip Events Conditions
12:52 AM 30.9 °F 27.5 °F 21.0 °F 67% 29.99 in 10.0 mi SW 3.5 mph - N/A   Clear
1:52 AM 30.0 °F - 21.9 °F 72% 29.99 in 10.0 mi Calm Calm - N/A   Clear
2:52 AM 28.0 °F - 19.9 °F 72% 29.97 in 10.0 mi Calm Calm - N/A   Clear
3:52 AM 27.0 °F - 19.9 °F 75% 29.95 in 10.0 mi Calm Calm - N/A   Clear
4:52 AM 27.0 °F 21.6 °F 19.9 °F 75% 29.92 in 10.0 mi ENE 4.6 mph - N/A   Clear
5:52 AM 28.0 °F 20.8 °F 21.0 °F 75% 29.91 in 10.0 mi ENE 6.9 mph - N/A   Clear
6:52 AM 28.0 °F 22.8 °F 21.0 °F 75% 29.90 in 10.0 mi NE 4.6 mph - N/A   Clear
7:52 AM 28.9 °F 23.9 °F 21.0 °F 72% 29.90 in 10.0 mi NE 4.6 mph - N/A   Clear
8:52 AM 33.1 °F - 25.0 °F 72% 29.88 in 10.0 mi Calm Calm - N/A   Clear
9:52 AM 41.0 °F 38.0 °F 30.0 °F 65% 29.87 in 10.0 mi WSW 4.6 mph - N/A   Clear
10:52 AM 50.0 °F - 30.9 °F 48% 29.85 in 10.0 mi SSW 8.1 mph - N/A   Clear
11:52 AM 60.1 °F - 30.0 °F 32% 29.81 in 10.0 mi SSW 6.9 mph - N/A   Clear
12:52 PM 68.0 °F - 28.9 °F 23% 29.75 in 10.0 mi SSW 9.2 mph - N/A   Clear
1:52 PM 75.0 °F - 25.0 °F 16% 29.72 in 10.0 mi SW 8.1 mph - N/A   Clear
2:52 PM 79.0 °F - 24.1 °F 13% 29.69 in 10.0 mi SW 8.1 mph - N/A   Clear
3:52 PM 80.1 °F - 19.0 °F 10% 29.68 in 10.0 mi West 18.4 mph - N/A   Clear
4:52 PM 79.0 °F - 19.0 °F 11% 29.69 in 10.0 mi WNW 15.0 mph - N/A   Clear
5:52 PM 70.0 °F - 35.1 °F 28% 29.73 in 10.0 mi North 19.6 mph 29.9 mph N/A   Clear
5:59 PM 69.1 °F - 35.1 °F 29% 29.72 in 10.0 mi North 13.8 mph 28.8 mph N/A   Clear
6:52 PM 62.1 °F - 35.1 °F 37% 29.79 in 10.0 mi NW 6.9 mph - N/A   Clear
7:52 PM 55.9 °F - 34.0 °F 44% 29.84 in 10.0 mi NNW 10.4 mph - N/A   Clear
8:52 PM 53.1 °F - 34.0 °F 48% 29.85 in 10.0 mi North 10.4 mph - N/A   Clear
9:52 PM 44.1 °F 41.5 °F 33.1 °F 65% 29.90 in 8.0 mi West 4.6 mph - N/A   Clear
10:52 PM 43.0 °F - 32.0 °F 65% 29.93 in 10.0 mi Calm Calm - N/A   Clear
11:52 PM 43.0 °F 39.5 °F 32.0 °F 65% 29.94 in 10.0 mi NW 5.8 mph - N/A   Clear